| time (UTC) | temp C | wind direction | speed KPH | gust KPH | rain 1hr cm | rain 24hr cm | rain mn cm | humidity % | barometer mb |
| 20260507051052 | 8 | 247 | 3.2 | 11.3 | 0.00 | 0.84 | 0.00 | 95 | 1008.3 |
| 20260507050552 | 8 | 237 | 3.2 | 9.7 | 0.00 | 0.84 | 0.00 | 95 | 1008.3 |
| 20260507050057 | 8 | 317 | 3.2 | 8.0 | 0.00 | 0.84 | 0.00 | 95 | 1008.2 |
| 20260507045553 | 8 | 326 | 0.0 | 6.4 | 0.00 | 0.84 | 0.00 | 95 | 1008.1 |
| 20260507045049 | 8 | 0 | 0.0 | 12.9 | 0.00 | 0.84 | 0.00 | 95 | 1008.1 |
| 20260507044551 | 9 | 0 | 3.2 | 12.9 | 0.00 | 0.84 | 0.00 | 94 | 1008.0 |
| 20260507044050 | 9 | 236 | 1.6 | 12.9 | 0.00 | 0.84 | 0.00 | 94 | 1008.2 |
| 20260507043550 | 9 | 0 | 4.8 | 12.9 | 0.00 | 0.84 | 0.00 | 94 | 1007.9 |
| 20260507043051 | 9 | 347 | 3.2 | 16.1 | 0.00 | 0.84 | 0.00 | 94 | 1007.8 |
| 20260507042551 | 9 | 278 | 3.2 | 16.1 | 0.00 | 0.84 | 0.00 | 94 | 1007.7 |
| 20260507042050 | 10 | 291 | 3.2 | 20.9 | 0.00 | 0.84 | 0.00 | 94 | 1007.6 |
| 20260507041553 | 10 | 310 | 4.8 | 20.9 | 0.00 | 0.84 | 0.00 | 95 | 1008.0 |
| 20260507041050 | 10 | 0 | 3.2 | 14.5 | 0.00 | 0.84 | 0.00 | 95 | 1007.9 |
| 20260507040552 | 10 | 276 | 4.8 | 14.5 | 0.00 | 0.84 | 0.00 | 95 | 1007.7 |
| 20260507040054 | 10 | 252 | 1.6 | 24.1 | 0.00 | 0.84 | 0.00 | 95 | 1007.8 |
| 20260507035550 | 10 | 0 | 9.7 | 24.1 | 0.00 | 0.84 | 0.84 | 95 | 1007.9 |
| 20260507035050 | 10 | 278 | 9.7 | 22.5 | 0.00 | 0.84 | 0.84 | 95 | 1007.8 |
| 20260507034553 | 10 | 264 | 11.3 | 22.5 | 0.00 | 0.84 | 0.84 | 95 | 1007.8 |
| 20260507034049 | 10 | 230 | 4.8 | 17.7 | 0.00 | 0.84 | 0.84 | 95 | 1007.7 |
| 20260507033550 | 10 | 239 | 9.7 | 17.7 | 0.00 | 0.84 | 0.84 | 95 | 1007.6 |
| 20260507033054 | 10 | 238 | 6.4 | 22.5 | 0.03 | 0.84 | 0.84 | 95 | 1007.6 |
| 20260507032550 | 10 | 306 | 6.4 | 22.5 | 0.03 | 0.84 | 0.84 | 94 | 1007.4 |
| 20260507032050 | 11 | 270 | 6.4 | 25.7 | 0.03 | 0.84 | 0.84 | 94 | 1007.5 |
| 20260507031552 | 11 | 287 | 9.7 | 25.7 | 0.05 | 0.84 | 0.84 | 94 | 1007.4 |
| 20260507031054 | 11 | 244 | 11.3 | 25.7 | 0.05 | 0.84 | 0.84 | 94 | 1007.4 |
| 20260507030551 | 11 | 308 | 9.7 | 30.6 | 0.05 | 0.84 | 0.84 | 95 | 1007.4 |
| 20260507030055 | 11 | 297 | 8.0 | 30.6 | 0.05 | 0.84 | 0.84 | 95 | 1007.2 |
| 20260507025554 | 12 | 317 | 6.4 | 22.5 | 0.05 | 0.84 | 0.84 | 96 | 1007.1 |
| 20260507025052 | 12 | 316 | 8.0 | 22.5 | 0.05 | 0.84 | 0.84 | 96 | 1007.1 |
| 20260507024606 | 12 | 301 | 6.4 | 22.5 | 0.05 | 0.84 | 0.84 | 95 | 1007.0 |
| 20260507024050 | 12 | 311 | 8.0 | 27.4 | 0.05 | 0.84 | 0.84 | 95 | 1007.1 |
| 20260507023554 | 12 | 296 | 11.3 | 29.0 | 0.05 | 0.84 | 0.84 | 95 | 1007.2 |
| 20260507023054 | 12 | 317 | 11.3 | 29.0 | 0.03 | 0.81 | 0.81 | 96 | 1007.2 |
| 20260507022554 | 13 | 301 | 8.0 | 22.5 | 0.03 | 0.81 | 0.81 | 96 | 1007.4 |
| 20260507022050 | 13 | 197 | 9.7 | 22.5 | 0.03 | 0.81 | 0.81 | 96 | 1007.5 |
| 20260507021556 | 13 | 248 | 9.7 | 20.9 | 0.00 | 0.79 | 0.79 | 96 | 1007.3 |
| 20260507021050 | 13 | 232 | 9.7 | 20.9 | 0.00 | 0.79 | 0.79 | 96 | 1007.1 |
| 20260507020550 | 13 | 276 | 6.4 | 17.7 | 0.00 | 0.79 | 0.79 | 97 | 1007.2 |
| 20260507020107 | 13 | 239 | 6.4 | 24.1 | 0.00 | 0.79 | 0.79 | 97 | 1006.9 |
| 20260507015549 | 13 | 226 | 4.8 | 24.1 | 0.00 | 0.79 | 0.79 | 97 | 1006.8 |
| 20260507015049 | 13 | 293 | 9.7 | 24.1 | 0.00 | 0.79 | 0.79 | 97 | 1006.8 |
| 20260507014603 | 14 | 299 | 8.0 | 24.1 | 0.00 | 0.79 | 0.79 | 97 | 1006.6 |
| 20260507014050 | 14 | 253 | 11.3 | 24.1 | 0.00 | 0.79 | 0.79 | 97 | 1006.8 |
| 20260507013550 | 14 | 189 | 8.0 | 20.9 | 0.00 | 0.79 | 0.79 | 97 | 1006.9 |
| 20260507013053 | 14 | 238 | 8.0 | 20.9 | 0.00 | 0.79 | 0.79 | 97 | 1006.8 |
| 20260507012551 | 14 | 197 | 8.0 | 20.9 | 0.00 | 0.79 | 0.79 | 97 | 1006.6 |
| 20260507012050 | 14 | 259 | 11.3 | 20.9 | 0.00 | 0.79 | 0.79 | 97 | 1006.6 |
| 20260507011551 | 14 | 153 | 4.8 | 19.3 | 0.00 | 0.79 | 0.79 | 97 | 1006.5 |
| 20260507011050 | 14 | 231 | 6.4 | 19.3 | 0.00 | 0.79 | 0.79 | 97 | 1006.5 |
| 20260507010550 | 14 | 164 | 6.4 | 24.1 | 0.00 | 0.79 | 0.79 | 97 | 1006.5 |
| 20260507010053 | 14 | 275 | 9.7 | 24.1 | 0.03 | 0.79 | 0.79 | 97 | 1006.6 |
| 20260507005551 | 14 | 223 | 9.7 | 24.1 | 0.03 | 0.79 | 0.79 | 97 | 1006.6 |
| 20260507005049 | 14 | 278 | 6.4 | 14.5 | 0.03 | 0.79 | 0.79 | 97 | 1006.6 |
| 20260507004601 | 14 | 202 | 6.4 | 16.1 | 0.03 | 0.79 | 0.79 | 97 | 1006.6 |
| 20260507004051 | 14 | 180 | 4.8 | 20.9 | 0.03 | 0.79 | 0.79 | 97 | 1006.6 |
| 20260507003551 | 14 | 190 | 8.0 | 20.9 | 0.03 | 0.79 | 0.79 | 97 | 1006.5 |
| 20260507003055 | 14 | 197 | 8.0 | 20.9 | 0.03 | 0.79 | 0.79 | 97 | 1006.4 |
| 20260507002549 | 14 | 199 | 6.4 | 17.7 | 0.03 | 0.79 | 0.79 | 97 | 1006.3 |
| 20260507002050 | 14 | 216 | 6.4 | 17.7 | 0.03 | 0.79 | 0.79 | 97 | 1006.3 |
| 20260507001602 | 14 | 229 | 4.8 | 14.5 | 0.03 | 0.79 | 0.79 | 97 | 1006.3 |
| 20260507001049 | 14 | 218 | 6.4 | 16.1 | 0.03 | 0.79 | 0.79 | 97 | 1006.3 |
| 20260507000550 | 14 | 189 | 6.4 | 19.3 | 0.03 | 0.79 | 0.79 | 97 | 1006.1 |
| 20260507000054 | 14 | 209 | 4.8 | 19.3 | 0.00 | 0.76 | 0.76 | 97 | 1006.2 |
| 20260506235550 | 14 | 159 | 8.0 | 19.3 | 0.00 | 0.76 | 0.76 | 97 | 1006.2 |
| 20260506235051 | 14 | 180 | 8.0 | 19.3 | 0.00 | 0.76 | 0.76 | 97 | 1006.3 |
| 20260506234602 | 14 | 189 | 6.4 | 17.7 | 0.00 | 0.76 | 0.76 | 97 | 1006.3 |
| 20260506234050 | 14 | 202 | 8.0 | 17.7 | 0.00 | 0.76 | 0.76 | 97 | 1006.1 |
| 20260506233554 | 14 | 218 | 8.0 | 16.1 | 0.00 | 0.76 | 0.76 | 97 | 1006.1 |
| 20260506233059 | 14 | 229 | 6.4 | 22.5 | 0.03 | 0.76 | 0.76 | 97 | 1006.0 |
| 20260506232549 | 14 | 141 | 8.0 | 22.5 | 0.03 | 0.76 | 0.76 | 97 | 1006.0 |
| 20260506232048 | 14 | 210 | 12.9 | 22.5 | 0.05 | 0.76 | 0.76 | 97 | 1005.9 |
| 20260506231558 | 14 | 202 | 9.7 | 20.9 | 0.05 | 0.76 | 0.76 | 97 | 1005.9 |
| 20260506231051 | 14 | 195 | 8.0 | 19.3 | 0.05 | 0.76 | 0.76 | 97 | 1005.9 |
| 20260506230551 | 14 | 193 | 8.0 | 19.3 | 0.05 | 0.76 | 0.76 | 97 | 1006.0 |
| 20260506230059 | 14 | 165 | 8.0 | 16.1 | 0.05 | 0.76 | 0.76 | 97 | 1005.9 |
| 20260506225549 | 14 | 202 | 6.4 | 16.1 | 0.05 | 0.76 | 0.76 | 97 | 1006.0 |
| 20260506225050 | 14 | 204 | 8.0 | 27.4 | 0.05 | 0.76 | 0.76 | 97 | 1006.1 |
| 20260506224551 | 14 | 170 | 9.7 | 27.4 | 0.08 | 0.76 | 0.76 | 96 | 1006.0 |
| 20260506224049 | 14 | 165 | 6.4 | 20.9 | 0.08 | 0.76 | 0.76 | 96 | 1006.1 |
| 20260506223552 | 14 | 154 | 9.7 | 27.4 | 0.08 | 0.76 | 0.76 | 96 | 1006.2 |
| 20260506223056 | 14 | 189 | 8.0 | 27.4 | 0.08 | 0.74 | 0.74 | 96 | 1006.2 |
| 20260506222550 | 14 | 202 | 9.7 | 25.7 | 0.05 | 0.71 | 0.71 | 96 | 1006.2 |
| 20260506222050 | 14 | 222 | 9.7 | 24.1 | 0.05 | 0.71 | 0.71 | 96 | 1006.2 |
| 20260506221553 | 14 | 203 | 12.9 | 24.1 | 0.08 | 0.71 | 0.71 | 96 | 1006.1 |
| 20260506221049 | 14 | 172 | 9.7 | 22.5 | 0.08 | 0.71 | 0.71 | 96 | 1006.1 |
| 20260506220550 | 14 | 218 | 14.5 | 22.5 | 0.10 | 0.71 | 0.71 | 96 | 1006.2 |
| 20260506220056 | 14 | 189 | 9.7 | 22.5 | 0.13 | 0.71 | 0.71 | 96 | 1006.3 |
| 20260506215550 | 14 | 210 | 9.7 | 27.4 | 0.15 | 0.71 | 0.71 | 96 | 1006.3 |
| 20260506215049 | 14 | 209 | 9.7 | 27.4 | 0.15 | 0.71 | 0.71 | 96 | 1006.3 |
| 20260506214555 | 14 | 0 | 11.3 | 20.9 | 0.13 | 0.69 | 0.69 | 96 | 1006.2 |
| 20260506214050 | 14 | 180 | 11.3 | 20.9 | 0.15 | 0.69 | 0.69 | 96 | 1006.4 |
| 20260506213549 | 14 | 171 | 9.7 | 22.5 | 0.18 | 0.69 | 0.69 | 96 | 1006.4 |
| 20260506213104 | 14 | 166 | 11.3 | 29.0 | 0.18 | 0.66 | 0.66 | 96 | 1006.5 |
| 20260506212551 | 14 | 172 | 11.3 | 29.0 | 0.23 | 0.66 | 0.66 | 96 | 1006.5 |
| 20260506212051 | 14 | 189 | 11.3 | 25.7 | 0.28 | 0.66 | 0.66 | 96 | 1006.3 |
| 20260506211604 | 14 | 164 | 9.7 | 27.4 | 0.28 | 0.64 | 0.64 | 96 | 1006.3 |
| 20260506211050 | 14 | 189 | 9.7 | 27.4 | 0.28 | 0.64 | 0.64 | 96 | 1006.5 |
| 20260506210551 | 14 | 172 | 12.9 | 27.4 | 0.28 | 0.61 | 0.61 | 96 | 1006.5 |
| 20260506210055 | 14 | 172 | 11.3 | 24.1 | 0.28 | 0.58 | 0.58 | 96 | 1006.4 |
| 20260506205550 | 14 | 201 | 11.3 | 22.5 | 0.25 | 0.56 | 0.56 | 96 | 1006.5 |
| 20260506205050 | 14 | 180 | 9.7 | 22.5 | 0.28 | 0.56 | 0.56 | 96 | 1006.7 |
| 20260506204557 | 14 | 204 | 8.0 | 27.4 | 0.30 | 0.56 | 0.56 | 96 | 1006.6 |
| 20260506204049 | 14 | 171 | 11.3 | 27.4 | 0.30 | 0.53 | 0.53 | 96 | 1006.8 |
| 20260506203549 | 14 | 189 | 12.9 | 27.4 | 0.28 | 0.51 | 0.51 | 96 | 1006.7 |
| 20260506203053 | 14 | 189 | 14.5 | 24.1 | 0.28 | 0.48 | 0.48 | 96 | 1006.8 |
| 20260506202550 | 15 | 172 | 9.7 | 24.1 | 0.23 | 0.43 | 0.43 | 96 | 1006.9 |
| 20260506202054 | 15 | 191 | 6.4 | 24.1 | 0.18 | 0.38 | 0.38 | 96 | 1007.0 |
| 20260506201600 | 15 | 189 | 8.0 | 24.1 | 0.15 | 0.36 | 0.36 | 96 | 1007.0 |
| 20260506201049 | 15 | 266 | 6.4 | 24.1 | 0.15 | 0.36 | 0.36 | 96 | 1007.0 |
| 20260506200550 | 15 | 156 | 11.3 | 24.1 | 0.13 | 0.33 | 0.33 | 95 | 1007.1 |
| 20260506200058 | 15 | 162 | 12.9 | 22.5 | 0.13 | 0.30 | 0.30 | 95 | 1007.0 |
| 20260506195549 | 15 | 205 | 9.7 | 24.1 | 0.10 | 0.28 | 0.28 | 95 | 1007.0 |
| 20260506195050 | 15 | 193 | 9.7 | 24.1 | 0.10 | 0.28 | 0.28 | 95 | 1007.1 |
| 20260506194604 | 15 | 180 | 6.4 | 19.3 | 0.08 | 0.25 | 0.25 | 95 | 1007.2 |
| 20260506194052 | 15 | 159 | 8.0 | 19.3 | 0.05 | 0.23 | 0.23 | 95 | 1007.4 |
| 20260506193552 | 15 | 194 | 8.0 | 25.7 | 0.05 | 0.23 | 0.23 | 95 | 1007.3 |
| 20260506193053 | 15 | 197 | 9.7 | 25.7 | 0.05 | 0.20 | 0.20 | 95 | 1007.3 |
| 20260506192551 | 15 | 189 | 14.5 | 25.7 | 0.05 | 0.20 | 0.20 | 94 | 1007.4 |
| 20260506192054 | 15 | 166 | 9.7 | 22.5 | 0.05 | 0.20 | 0.20 | 94 | 1007.3 |
| 20260506191553 | 15 | 206 | 11.3 | 20.9 | 0.05 | 0.20 | 0.20 | 94 | 1007.4 |
| 20260506191050 | 15 | 209 | 9.7 | 16.1 | 0.08 | 0.20 | 0.20 | 95 | 1007.4 |
| 20260506190550 | 15 | 170 | 8.0 | 24.1 | 0.08 | 0.20 | 0.20 | 94 | 1007.4 |
| 20260506190056 | 15 | 191 | 9.7 | 24.1 | 0.08 | 0.18 | 0.18 | 94 | 1007.5 |
| 20260506185549 | 15 | 220 | 6.4 | 24.1 | 0.08 | 0.18 | 0.18 | 94 | 1007.3 |
| 20260506185050 | 15 | 93 | 12.9 | 24.1 | 0.10 | 0.18 | 0.18 | 94 | 1007.1 |
| 20260506184605 | 15 | 222 | 6.4 | 20.9 | 0.10 | 0.18 | 0.18 | 94 | 1007.2 |
| 20260506184050 | 15 | 204 | 8.0 | 20.9 | 0.13 | 0.18 | 0.18 | 94 | 1007.3 |
| 20260506183550 | 15 | 172 | 6.4 | 22.5 | 0.15 | 0.18 | 0.18 | 94 | 1007.6 |
| 20260506183100 | 15 | 189 | 4.8 | 22.5 | 0.13 | 0.15 | 0.15 | 93 | 1007.6 |
| 20260506182549 | 15 | 180 | 11.3 | 22.5 | 0.15 | 0.15 | 0.15 | 93 | 1007.7 |
| 20260506182052 | 15 | 194 | 9.7 | 20.9 | 0.15 | 0.15 | 0.15 | 92 | 1007.8 |
| 20260506181551 | 15 | 189 | 8.0 | 19.3 | 0.15 | 0.15 | 0.15 | 92 | 1007.9 |
| 20260506181051 | 15 | 172 | 8.0 | 19.3 | 0.13 | 0.13 | 0.13 | 92 | 1008.0 |
| 20260506180550 | 15 | 166 | 6.4 | 16.1 | 0.13 | 0.13 | 0.13 | 92 | 1008.1 |
| 20260506180055 | 16 | 189 | 4.8 | 14.5 | 0.10 | 0.10 | 0.10 | 91 | 1008.2 |
| 20260506175551 | 16 | 191 | 6.4 | 14.5 | 0.10 | 0.10 | 0.10 | 90 | 1008.5 |
| 20260506175049 | 16 | 170 | 8.0 | 27.4 | 0.08 | 0.08 | 0.08 | 90 | 1008.6 |
| 20260506174551 | 16 | 233 | 6.4 | 27.4 | 0.08 | 0.08 | 0.08 | 88 | 1008.5 |
| 20260506174053 | 16 | 189 | 6.4 | 19.3 | 0.05 | 0.05 | 0.05 | 86 | 1008.8 |
| 20260506173550 | 16 | 169 | 6.4 | 24.1 | 0.03 | 0.03 | 0.03 | 85 | 1008.7 |
| 20260506173054 | 17 | 194 | 6.4 | 29.0 | 0.03 | 0.03 | 0.03 | 82 | 1008.8 |
| 20260506172553 | 17 | 228 | 8.0 | 29.0 | 0.00 | 0.00 | 0.00 | 80 | 1008.7 |
| 20260506172050 | 18 | 232 | 9.7 | 25.7 | 0.00 | 0.00 | 0.00 | 76 | 1008.6 |
| 20260506171558 | 18 | 131 | 9.7 | 30.6 | 0.00 | 0.00 | 0.00 | 75 | 1008.6 |
| 20260506171053 | 18 | 199 | 12.9 | 30.6 | 0.00 | 0.00 | 0.00 | 74 | 1008.5 |
| 20260506170549 | 18 | 166 | 14.5 | 29.0 | 0.00 | 0.00 | 0.00 | 72 | 1008.5 |
| 20260506170112 | 19 | 205 | 8.0 | 24.1 | 0.00 | 0.00 | 0.00 | 70 | 1008.6 |
| 20260506165553 | 19 | 161 | 9.7 | 38.6 | 0.00 | 0.00 | 0.00 | 71 | 1008.6 |
| 20260506165051 | 19 | 213 | 14.5 | 38.6 | 0.00 | 0.00 | 0.00 | 71 | 1008.6 |
| 20260506164556 | 19 | 213 | 17.7 | 38.6 | 0.00 | 0.00 | 0.00 | 71 | 1008.7 |
| 20260506164049 | 18 | 194 | 12.9 | 33.8 | 0.00 | 0.00 | 0.00 | 72 | 1008.7 |
| 20260506163553 | 18 | 166 | 12.9 | 30.6 | 0.00 | 0.00 | 0.00 | 72 | 1008.7 |
| 20260506163110 | 18 | 223 | 9.7 | 30.6 | 0.00 | 0.00 | 0.00 | 72 | 1008.9 |
| 20260506162550 | 18 | 224 | 11.3 | 30.6 | 0.00 | 0.00 | 0.00 | 71 | 1008.8 |
| 20260506162050 | 18 | 190 | 9.7 | 20.9 | 0.00 | 0.00 | 0.00 | 72 | 1008.9 |
| 20260506161601 | 18 | 161 | 6.4 | 25.7 | 0.00 | 0.00 | 0.00 | 74 | 1009.0 |
| 20260506161049 | 18 | 212 | 12.9 | 25.7 | 0.00 | 0.00 | 0.00 | 72 | 1009.1 |
| 20260506160550 | 18 | 172 | 11.3 | 32.2 | 0.00 | 0.00 | 0.00 | 72 | 1009.1 |
| 20260506160109 | 18 | 189 | 8.0 | 32.2 | 0.00 | 0.00 | 0.00 | 72 | 1009.1 |
| 20260506155549 | 19 | 199 | 9.7 | 22.5 | 0.00 | 0.00 | 0.00 | 71 | 1009.3 |
| 20260506155053 | 19 | 280 | 4.8 | 20.9 | 0.00 | 0.00 | 0.00 | 72 | 1009.2 |
| 20260506154604 | 19 | 196 | 6.4 | 20.9 | 0.00 | 0.00 | 0.00 | 70 | 1009.3 |
| 20260506154051 | 19 | 217 | 9.7 | 24.1 | 0.00 | 0.00 | 0.00 | 70 | 1009.6 |
| 20260506153550 | 19 | 170 | 6.4 | 24.1 | 0.00 | 0.00 | 0.00 | 72 | 1009.4 |
| 20260506153105 | 19 | 213 | 9.7 | 24.1 | 0.00 | 0.00 | 0.00 | 72 | 1009.4 |
| 20260506152613 | 19 | 197 | 8.0 | 19.3 | 0.00 | 0.00 | 0.00 | 71 | 1009.6 |
| 20260506152050 | 19 | 191 | 6.4 | 22.5 | 0.00 | 0.00 | 0.00 | 72 | 1009.4 |
| 20260506151555 | 19 | 229 | 9.7 | 25.7 | 0.00 | 0.00 | 0.00 | 72 | 1009.6 |
| 20260506151053 | 19 | 164 | 9.7 | 25.7 | 0.00 | 0.00 | 0.00 | 72 | 1009.8 |
| 20260506150550 | 19 | 160 | 9.7 | 25.7 | 0.00 | 0.00 | 0.00 | 71 | 1009.7 |
| 20260506150053 | 19 | 216 | 9.7 | 25.7 | 0.00 | 0.00 | 0.00 | 72 | 1009.7 |
| 20260506145550 | 19 | 150 | 11.3 | 25.7 | 0.00 | 0.00 | 0.00 | 71 | 1009.9 |
| 20260506145054 | 20 | 166 | 14.5 | 25.7 | 0.00 | 0.00 | 0.00 | 71 | 1009.8 |
| 20260506144602 | 20 | 228 | 12.9 | 27.4 | 0.00 | 0.00 | 0.00 | 71 | 1009.5 |
| 20260506144049 | 20 | 209 | 6.4 | 27.4 | 0.00 | 0.00 | 0.00 | 73 | 1009.5 |
| 20260506143550 | 20 | 218 | 14.5 | 27.4 | 0.00 | 0.00 | 0.00 | 70 | 1009.5 |
| 20260506143103 | 19 | 220 | 11.3 | 20.9 | 0.00 | 0.00 | 0.00 | 72 | 1009.7 |
| 20260506142549 | 19 | 222 | 9.7 | 24.1 | 0.00 | 0.00 | 0.00 | 71 | 1009.7 |
| 20260506142052 | 19 | 210 | 8.0 | 24.1 | 0.00 | 0.00 | 0.00 | 73 | 1009.7 |
| 20260506141554 | 19 | 197 | 8.0 | 30.6 | 0.00 | 0.00 | 0.00 | 74 | 1009.8 |
| 20260506141051 | 18 | 172 | 8.0 | 30.6 | 0.00 | 0.00 | 0.00 | 74 | 1009.5 |
| 20260506140551 | 18 | 217 | 11.3 | 29.0 | 0.00 | 0.00 | 0.00 | 75 | 1009.6 |
| 20260506140054 | 18 | 180 | 12.9 | 29.0 | 0.00 | 0.00 | 0.00 | 75 | 1009.6 |
| 20260506135550 | 18 | 206 | 12.9 | 27.4 | 0.00 | 0.00 | 0.00 | 76 | 1009.4 |
| 20260506135049 | 18 | 149 | 12.9 | 27.4 | 0.00 | 0.00 | 0.00 | 76 | 1009.3 |
| 20260506134556 | 18 | 180 | 8.0 | 22.5 | 0.00 | 0.00 | 0.00 | 78 | 1009.3 |
| 20260506134050 | 17 | 170 | 12.9 | 22.5 | 0.00 | 0.00 | 0.00 | 78 | 1009.5 |
| 20260506133550 | 17 | 217 | 11.3 | 20.9 | 0.00 | 0.00 | 0.00 | 79 | 1009.6 |
| 20260506133054 | 17 | 208 | 8.0 | 20.9 | 0.00 | 0.00 | 0.00 | 78 | 1009.6 |
| 20260506132549 | 17 | 189 | 11.3 | 19.3 | 0.00 | 0.00 | 0.00 | 79 | 1009.8 |
| 20260506132052 | 17 | 166 | 8.0 | 20.9 | 0.00 | 0.00 | 0.00 | 80 | 1009.8 |
| 20260506131552 | 17 | 189 | 8.0 | 22.5 | 0.00 | 0.00 | 0.00 | 79 | 1009.8 |
| 20260506131050 | 17 | 189 | 6.4 | 22.5 | 0.00 | 0.00 | 0.00 | 79 | 1009.9 |
| 20260506130550 | 17 | 202 | 9.7 | 20.9 | 0.00 | 0.00 | 0.00 | 79 | 1009.9 |
| 20260506130059 | 17 | 172 | 8.0 | 20.9 | 0.00 | 0.00 | 0.00 | 79 | 1009.9 |
| 20260506125552 | 17 | 210 | 8.0 | 20.9 | 0.00 | 0.00 | 0.00 | 79 | 1010.0 |
| 20260506125049 | 17 | 256 | 6.4 | 24.1 | 0.00 | 0.00 | 0.00 | 79 | 1010.0 |
| 20260506124552 | 17 | 224 | 11.3 | 27.4 | 0.00 | 0.00 | 0.00 | 79 | 1010.0 |
| 20260506124049 | 17 | 225 | 8.0 | 29.0 | 0.00 | 0.00 | 0.00 | 79 | 1010.0 |
| 20260506123549 | 17 | 209 | 12.9 | 29.0 | 0.00 | 0.00 | 0.00 | 80 | 1009.9 |
| 20260506123055 | 17 | 208 | 12.9 | 25.7 | 0.00 | 0.00 | 0.00 | 80 | 1010.1 |
| 20260506122549 | 17 | 221 | 11.3 | 25.7 | 0.00 | 0.00 | 0.00 | 80 | 1009.9 |
| 20260506122051 | 17 | 162 | 8.0 | 29.0 | 0.00 | 0.00 | 0.00 | 81 | 1009.8 |
| 20260506121557 | 17 | 234 | 12.9 | 29.0 | 0.00 | 0.00 | 0.00 | 81 | 1009.9 |
| 20260506121052 | 16 | 172 | 9.7 | 20.9 | 0.00 | 0.00 | 0.00 | 82 | 1009.8 |
| 20260506120552 | 16 | 210 | 9.7 | 27.4 | 0.00 | 0.00 | 0.00 | 83 | 1009.9 |
| 20260506120056 | 16 | 162 | 12.9 | 27.4 | 0.00 | 0.00 | 0.00 | 83 | 1009.9 |
| 20260506115552 | 16 | 195 | 9.7 | 33.8 | 0.00 | 0.00 | 0.00 | 83 | 1010.3 |
| 20260506115051 | 16 | 200 | 8.0 | 33.8 | 0.00 | 0.00 | 0.00 | 83 | 1010.2 |
| 20260506114557 | 16 | 251 | 14.5 | 33.8 | 0.00 | 0.00 | 0.00 | 83 | 1010.1 |
| 20260506114051 | 16 | 208 | 9.7 | 27.4 | 0.00 | 0.00 | 0.00 | 84 | 1010.1 |
| 20260506113551 | 15 | 166 | 9.7 | 32.2 | 0.00 | 0.00 | 0.00 | 84 | 1010.1 |
| 20260506113054 | 15 | 229 | 14.5 | 32.2 | 0.00 | 0.00 | 0.00 | 84 | 1010.3 |
| 20260506112554 | 15 | 212 | 8.0 | 24.1 | 0.00 | 0.00 | 0.00 | 84 | 1010.4 |
| 20260506112052 | 15 | 232 | 8.0 | 20.9 | 0.00 | 0.00 | 0.00 | 84 | 1010.3 |
| 20260506111554 | 15 | 170 | 8.0 | 20.9 | 0.00 | 0.00 | 0.00 | 84 | 1010.4 |
| 20260506111051 | 15 | 160 | 8.0 | 20.9 | 0.00 | 0.00 | 0.00 | 84 | 1010.4 |
| 20260506110555 | 15 | 199 | 11.3 | 22.5 | 0.00 | 0.00 | 0.00 | 84 | 1010.4 |
| 20260506110053 | 15 | 222 | 8.0 | 22.5 | 0.00 | 0.00 | 0.00 | 84 | 1010.4 |
| 20260506105552 | 15 | 244 | 12.9 | 22.5 | 0.00 | 0.00 | 0.00 | 84 | 1010.4 |
| 20260506105051 | 15 | 206 | 11.3 | 20.9 | 0.00 | 0.00 | 0.00 | 84 | 1010.2 |
| 20260506104553 | 15 | 0 | 6.4 | 20.9 | 0.00 | 0.00 | 0.00 | 85 | 1010.2 |
| 20260506104051 | 15 | 213 | 12.9 | 20.9 | 0.00 | 0.00 | 0.00 | 85 | 1010.3 |
| 20260506103551 | 14 | 208 | 4.8 | 24.1 | 0.00 | 0.00 | 0.00 | 85 | 1010.3 |
| 20260506103058 | 14 | 257 | 9.7 | 24.1 | 0.00 | 0.00 | 0.00 | 85 | 1010.3 |
| 20260506102552 | 14 | 198 | 8.0 | 24.1 | 0.00 | 0.00 | 0.00 | 85 | 1010.2 |
| 20260506102052 | 14 | 180 | 9.7 | 25.7 | 0.00 | 0.00 | 0.00 | 85 | 1010.2 |
| 20260506101554 | 14 | 180 | 8.0 | 25.7 | 0.00 | 0.00 | 0.00 | 85 | 1010.2 |
| 20260506101051 | 14 | 224 | 9.7 | 27.4 | 0.00 | 0.00 | 0.00 | 85 | 1010.2 |
| 20260506100551 | 14 | 209 | 11.3 | 27.4 | 0.00 | 0.00 | 0.00 | 84 | 1010.2 |
| 20260506100059 | 14 | 219 | 6.4 | 22.5 | 0.00 | 0.00 | 0.00 | 84 | 1010.1 |
| 20260506095551 | 14 | 201 | 11.3 | 22.5 | 0.00 | 0.00 | 0.00 | 84 | 1010.2 |
| 20260506095055 | 14 | 189 | 8.0 | 22.5 | 0.00 | 0.00 | 0.00 | 84 | 1010.2 |
| 20260506094601 | 14 | 199 | 6.4 | 25.7 | 0.00 | 0.00 | 0.00 | 84 | 1010.1 |
| 20260506094050 | 14 | 195 | 11.3 | 25.7 | 0.00 | 0.00 | 0.00 | 84 | 1010.2 |
| 20260506093552 | 14 | 269 | 6.4 | 27.4 | 0.00 | 0.00 | 0.00 | 83 | 1010.1 |
| 20260506093056 | 14 | 231 | 11.3 | 27.4 | 0.00 | 0.00 | 0.00 | 83 | 1010.1 |
| 20260506092552 | 14 | 225 | 8.0 | 20.9 | 0.00 | 0.00 | 0.00 | 83 | 1010.2 |
| 20260506092054 | 15 | 172 | 9.7 | 22.5 | 0.00 | 0.00 | 0.00 | 83 | 1010.0 |
| 20260506091559 | 15 | 180 | 11.3 | 24.1 | 0.00 | 0.00 | 0.00 | 83 | 1009.9 |
| 20260506091052 | 14 | 172 | 9.7 | 24.1 | 0.00 | 0.00 | 0.00 | 83 | 1009.9 |
| 20260506090551 | 14 | 189 | 9.7 | 25.7 | 0.00 | 0.00 | 0.00 | 83 | 1010.1 |
| 20260506090058 | 14 | 237 | 6.4 | 25.7 | 0.00 | 0.00 | 0.00 | 82 | 1010.1 |
| 20260506085551 | 14 | 210 | 8.0 | 29.0 | 0.00 | 0.00 | 0.00 | 82 | 1010.0 |
| 20260506085051 | 15 | 250 | 11.3 | 29.0 | 0.00 | 0.00 | 0.00 | 82 | 1010.0 |
| 20260506084612 | 14 | 228 | 8.0 | 19.3 | 0.00 | 0.00 | 0.00 | 82 | 1010.2 |
| 20260506084051 | 14 | 244 | 8.0 | 25.7 | 0.00 | 0.00 | 0.00 | 82 | 1010.1 |
| 20260506083551 | 15 | 239 | 9.7 | 25.7 | 0.00 | 0.00 | 0.00 | 81 | 1010.2 |
| 20260506083056 | 15 | 231 | 9.7 | 25.7 | 0.00 | 0.00 | 0.00 | 81 | 1010.1 |
| 20260506082551 | 15 | 172 | 9.7 | 20.9 | 0.00 | 0.00 | 0.00 | 80 | 1010.2 |
| 20260506082051 | 15 | 233 | 8.0 | 17.7 | 0.00 | 0.00 | 0.00 | 80 | 1010.3 |
| 20260506081556 | 15 | 189 | 6.4 | 19.3 | 0.00 | 0.00 | 0.00 | 79 | 1010.3 |
| 20260506081052 | 15 | 218 | 6.4 | 19.3 | 0.00 | 0.00 | 0.00 | 78 | 1010.2 |
| 20260506080552 | 15 | 244 | 8.0 | 19.3 | 0.00 | 0.00 | 0.00 | 78 | 1010.2 |
| 20260506073057 | 15 | 198 | 6.4 | 22.5 | 0.00 | 0.00 | 0.00 | 77 | 1010.2 |
| 20260506072551 | 15 | 287 | 6.4 | 16.1 | 0.00 | 0.00 | 0.00 | 76 | 1010.3 |
| 20260506072053 | 15 | 189 | 8.0 | 19.3 | 0.00 | 0.00 | 0.00 | 76 | 1010.2 |
| 20260506071556 | 15 | 172 | 6.4 | 19.3 | 0.00 | 0.00 | 0.00 | 76 | 1010.2 |
| 20260506071051 | 15 | 226 | 6.4 | 17.7 | 0.00 | 0.00 | 0.00 | 75 | 1010.1 |
| 20260506070551 | 15 | 247 | 6.4 | 17.7 | 0.00 | 0.00 | 0.00 | 75 | 1010.1 |
| 20260506062052 | 16 | 206 | 8.0 | 22.5 | 0.00 | 0.00 | 0.00 | 73 | 1010.1 |
| 20260506061601 | 16 | 206 | 11.3 | 22.5 | 0.00 | 0.00 | 0.00 | 73 | 1010.1 |
| 20260506061052 | 16 | 202 | 4.8 | 19.3 | 0.00 | 0.00 | 0.00 | 73 | 1010.0 |
| 20260506060551 | 16 | 166 | 9.7 | 24.1 | 0.00 | 0.00 | 0.00 | 72 | 1010.1 |